CZ-6A DEB

Satellite information

Favourite Embed

Satellite Type and Status

DEBRISIN ORBIT

Key statistics

Satellite CZ-6A DEB at a glance.

Uptime

1129

Days in orbit

Revolutions

≈ 13.9

Per day

Orbit

SSO

Sun Synchronous Orbit

Inclination

98.9

Latest

Satellite identification and parameters

Extended collection of information and parameters for CZ-6A DEB.

Object identification

Identified? True

Debris? True

Object name: CZ-6A DEB

International designator: 2022-151ADK

Object number (NORAD): 56587

Object ID (CCSDS): 56587

Country: PEOPLES REPUBLIC OF CHINA (PRC)

Current information (Y/N): Y

RCS size: SMALL

Orbital parameters

Period: 103.535 minutes

Inclination: 98.9194 deg

SMA: 7303.847 km

Apoapsis: 1047.888 km

Periapsis: 803.537 km

RAAN: 311.1038 deg

Eccentricy: 0.01672759

Argument of periapsis: 284.8688 deg

Mean anomaly: 73.3998 deg

Mean motion: 13.90833797 rev/day

Mean motion (dot): 0.00002462 rev/day2

B* drag term: 0.0017881887 1/REarth

Two-line elements (TLE)

Creation date: Dec. 11, 2025, 7:14 p.m.

Reference frame: TEME

Reference center: EARTH

Epoch: Dec. 11, 2025, 8:24 a.m. UTC

TLE line 0: 0 CZ-6A DEB

TLE line 1: 1 56587U 22151ADK 25345.35012009 .00002462 00000-0 17882-2 0 9993

TLE line 2: 2 56587 98.9194 311.1038 0167276 284.8688 73.3998 13.90833797133458

Live tracking on map

Real-time ground track for satellite CZ-6A DEB.

In-orbit conjunctions

A list of the most updated potential collisions computed for object CZ-6A DEB.

Target Orbit TCA Probability of collision Miss distance Type
METEOR 2-20 DEB LEO 2025-11-11 06:18:10 0.0002304594 141.0 (m) DEBRIS
FENGYUN 1C DEB SSO 2024-06-26 20:29:13 0.0001855189 68.0 (m) DEBRIS

Associated space launch

Chinese satellite reported for atmospheric/ocean/environmental/spatial parameter research purposes, details TBD.

CZ-6A DEB was lifted into orbit during the mission ‘Long March 6A | Yunhai 3’, on board a Long March 6A space rocket.

The launch took place on Nov. 11, 2022, 10:52 p.m. from Launch Complex 9A.

For more information about the launch, click the button.

Launch to space Long March 6A | Yunhai 3
Long March 6A | Yunhai 3

Agency: N/A

Status: Launch Successful

Launch date: Nov. 11, 2022, 10:52 p.m. UTC

Rocket: Long March 6A

Launch pad: Launch Complex 9A

Location: Taiyuan Satellite Launch Center, People's Republic of China

...

Latest news about this satellite

There are no fresh news available about this satellite. Check back as we update our databases every day.


Newsletter sign-up

Weekly statistics, charts and insights to help you stay on top of the space industry.